This is the latest recevied weather packets stored in our database for station/object KA1AL. If no packets are shown the sender has not sent any weather packets the latest 10 day(s).
| Time | Temp. | Humidity | Pressure | Rain* | Wind** | Luminosity | Snow |
|---|---|---|---|---|---|---|---|
| 1777836897 | 7.78° C | 78% | 1002.3 hPa | 0 mm | - | 237 W/m² | - |
| 1777836593 | 8.33° C | 79% | 1002.3 hPa | 0 mm | - | 274 W/m² | - |
| 1777836289 | 7.78° C | 83% | 1002.3 hPa | 0 mm | - | 330 W/m² | - |
| 1777835984 | 7.78° C | 84% | 1002.6 hPa | 0 mm | - | 247 W/m² | - |
| 1777835683 | 7.22° C | 83% | 1002.7 hPa | 0 mm | - | 206 W/m² | - |
| 1777835378 | 7.22° C | 84% | 1002.9 hPa | 0 mm | - | 206 W/m² | - |
| 1777835076 | 7.22° C | 84% | 1002.7 hPa | 0 mm | - | 181 W/m² | - |
| 1777834773 | 7.22° C | 85% | 1002.8 hPa | 0 mm | - | 180 W/m² | - |
| 1777834469 | 7.22° C | 86% | 1002.8 hPa | 0 mm | - | 209 W/m² | - |
| 1777834168 | 7.22° C | 84% | 1002.8 hPa | 0 mm | - | 240 W/m² | - |
| 1777833866 | 7.22° C | 85% | 1002.8 hPa | 0 mm | - | 237 W/m² | - |
| 1777833562 | 7.22° C | 87% | 1002.9 hPa | 0 mm | - | 266 W/m² | - |
| 1777833258 | 7.22° C | 85% | 1002.8 hPa | 0 mm | - | 270 W/m² | - |
| 1777832955 | 7.22° C | 89% | 1003.1 hPa | 0 mm | - | 293 W/m² | - |
| 1777832655 | 7.22° C | 87% | 1002.9 hPa | 0 mm | - | 298 W/m² | - |
| 1777832351 | 7.22° C | 87% | 1003 hPa | 0 mm | - | 271 W/m² | - |
| 1777832048 | 6.67° C | 89% | 1003 hPa | 0 mm | - | 276 W/m² | - |
| 1777831744 | 6.67° C | 90% | 1003.1 hPa | 0 mm | - | 345 W/m² | - |
| 1777831443 | 6.67° C | 92% | 1003 hPa | 0 mm | - | 346 W/m² | - |
| 1777831139 | 6.11° C | 91% | 1002.9 hPa | 0 mm | - | 325 W/m² | - |
| 1777830837 | 6.11° C | 93% | 1003.2 hPa | 0 mm | - | 253 W/m² | - |
| 1777830532 | 6.11° C | 96% | 1002.9 hPa | 0 mm | - | 265 W/m² | - |
| 1777830231 | 5.56° C | 97% | 1002.9 hPa | 0 mm | - | 240 W/m² | - |
| 1777829931 | 5.56° C | 97% | 1003.1 hPa | 0 mm | - | 231 W/m² | - |
| 1777829627 | 5.56° C | 98% | 1003 hPa | 0 mm | - | 250 W/m² | - |
* Rain latest hour (hover to see other rain measurements)
** Current wind speed in m/s (hover to see current wind gust speed)